Location: Aldenham
(51.6667°N, 0.3500°W)
Time: 21:46:57
(UTC+00:00)

Explorer 7 - Visible Passes

Search period start: 18 February 2026 00:00
Search period end: 28 February 2026 00:00
Orbit: 431 x 545 km, 50.2° (Epoch: 18 February)

Date Brightness Start Highest point End Pass type
(mag) Time Alt. Az. Time Alt. Az. Time Alt. Az.
18 Feb 6.7 18:07:59 10° W 18:11:40 70° S 18:15:22 11° ESE visible
18 Feb 7.7 19:46:22 10° W 19:49:44 36° SSW 19:49:44 36° SSW visible
19 Feb 7.7 19:20:41 10° W 19:24:11 37° SSW 19:25:18 30° SSE visible
20 Feb 7.7 18:54:58 10° W 18:58:27 38° SSW 19:00:55 17° SE visible
20 Feb 9.6 20:34:45 10° WSW 20:35:17 11° SW 20:35:17 11° SW visible
21 Feb 7.7 18:29:14 10° W 18:32:42 39° SSW 18:36:18 10° SE visible
21 Feb 9.3 20:08:54 10° WSW 20:10:27 12° SW 20:10:58 12° SSW visible
22 Feb 7.8 18:03:28 10° W 18:06:56 39° SSW 18:10:31 10° SE visible
22 Feb 9.3 19:43:02 10° WSW 19:44:40 12° SW 19:46:20 10° SSW visible
23 Feb 9.4 19:17:10 10° WSW 19:18:53 13° SW 19:20:38 10° SSW visible
24 Feb 9.4 18:51:16 10° WSW 18:53:04 13° SW 18:54:54 10° S visible
25 Feb 9.4 18:25:20 10° WSW 18:27:12 13° SW 18:29:07 10° S visible
